TimeCST,TemperatureF,Dew PointF,Humidity,Sea Level PressureIn,VisibilityMPH,Wind Direction,Wind SpeedMPH,Gust SpeedMPH,PrecipitationIn,Events,Conditions,WindDirDegrees,DateUTC
12:56 AM,8.1,1.9,76,30.38,4.0,ESE,13.8,-,0.00,Snow,Light Snow,110,2013-12-08 06:56:00
1:31 AM,8.1,3.0,80,30.25,2.5,ESE,12.7,-,0.00,Snow,Light Snow,110,2013-12-08 07:31:00
1:41 AM,8.1,3.0,80,30.24,1.8,ESE,10.4,-,0.00,Snow,Light Snow,120,2013-12-08 07:41:00
1:56 AM,8.1,3.9,83,30.35,1.5,ESE,9.2,-,0.01,Snow,Light Snow,120,2013-12-08 07:56:00
2:56 AM,9.0,3.9,80,30.31,1.2,ESE,6.9,-,0.02,Snow,Light Snow,110,2013-12-08 08:56:00
3:13 AM,9.0,5.0,84,30.20,2.5,ESE,8.1,-,0.00,Snow,Light Snow,110,2013-12-08 09:13:00
3:31 AM,9.0,3.9,80,30.19,2.5,ESE,11.5,-,0.00,Snow,Light Snow,110,2013-12-08 09:31:00
3:38 AM,9.0,3.9,80,30.18,3.0,ESE,11.5,-,0.00,Snow,Light Snow,120,2013-12-08 09:38:00
3:56 AM,9.0,3.9,80,30.28,2.0,ESE,10.4,-,0.01,Snow,Light Snow,120,2013-12-08 09:56:00
4:16 AM,9.0,3.9,80,30.17,3.0,ESE,11.5,-,0.00,Snow,Light Snow,120,2013-12-08 10:16:00
4:27 AM,9.0,3.9,80,30.16,2.0,ESE,10.4,-,0.00,Snow,Light Snow,120,2013-12-08 10:27:00
4:35 AM,9.0,5.0,84,30.16,1.8,ESE,10.4,-,0.00,Snow,Light Snow,120,2013-12-08 10:35:00
4:44 AM,9.0,5.0,84,30.15,2.5,ESE,10.4,-,0.00,Snow,Light Snow,120,2013-12-08 10:44:00
4:48 AM,9.0,3.9,80,30.14,3.0,ESE,11.5,-,0.00,Snow,Light Snow,120,2013-12-08 10:48:00
4:56 AM,9.0,3.9,80,30.25,4.0,ESE,10.4,-,0.00,Snow,Light Snow,110,2013-12-08 10:56:00
5:21 AM,9.0,3.9,80,30.14,1.8,ESE,11.5,-,0.01,Snow,Light Snow,120,2013-12-08 11:21:00
5:29 AM,9.0,3.9,80,30.13,1.5,ESE,8.1,-,0.01,Snow,Light Snow,110,2013-12-08 11:29:00
5:56 AM,9.0,5.0,84,30.22,1.5,ESE,10.4,-,0.02,Snow,Light Snow,120,2013-12-08 11:56:00
6:23 AM,9.0,5.0,84,30.12,2.0,ESE,6.9,-,0.00,Snow,Light Snow,110,2013-12-08 12:23:00
6:32 AM,9.0,5.0,84,30.11,1.2,ESE,8.1,-,0.01,Snow,Light Snow,110,2013-12-08 12:32:00
6:56 AM,9.0,5.0,84,30.22,1.2,ESE,4.6,-,0.02,Snow,Light Snow,110,2013-12-08 12:56:00
7:15 AM,9.0,5.0,84,30.11,2.0,ESE,5.8,-,0.00,Snow,Light Snow,110,2013-12-08 13:15:00
7:56 AM,9.0,5.0,84,30.21,1.8,ESE,5.8,-,0.01,Snow,Light Snow,110,2013-12-08 13:56:00
8:13 AM,9.0,5.0,84,30.09,2.5,East,4.6,-,0.00,Snow,Light Snow,100,2013-12-08 14:13:00
8:23 AM,10.0,5.0,80,30.09,1.5,East,4.6,-,0.00,Snow,Light Snow,90,2013-12-08 14:23:00
8:54 AM,10.4,5.0,79,30.09,0.8,ESE,6.9,-,0.01,Snow,Light Snow,110,2013-12-08 14:54:00
8:56 AM,10.0,5.0,80,30.19,0.8,ESE,6.9,-,0.01,Snow,Light Snow,110,2013-12-08 14:56:00
9:03 AM,10.0,5.0,80,30.09,1.0,ESE,5.8,-,0.00,Snow,Light Snow,120,2013-12-08 15:03:00
9:46 AM,10.0,6.1,84,30.09,1.8,East,4.6,-,0.01,Snow,Light Snow,100,2013-12-08 15:46:00
9:56 AM,10.9,6.1,81,30.19,1.8,ESE,4.6,-,0.01,Snow,Light Snow,110,2013-12-08 15:56:00
10:11 AM,10.9,6.1,81,30.08,2.0,ESE,5.8,-,0.00,Snow,Light Snow,120,2013-12-08 16:11:00
10:29 AM,10.9,6.1,81,30.08,3.0,ESE,9.2,-,0.01,Snow,Light Snow,120,2013-12-08 16:29:00
10:56 AM,12.0,6.1,77,30.17,3.0,SE,6.9,-,0.01,Snow,Light Snow,130,2013-12-08 16:56:00
11:56 AM,12.0,6.1,77,30.14,5.0,SE,8.1,-,0.00,Snow,Light Snow,130,2013-12-08 17:56:00
12:56 PM,12.9,7.0,77,30.11,3.0,ESE,5.8,-,0.00,Snow,Light Snow,110,2013-12-08 18:56:00
1:56 PM,14.0,7.0,74,30.09,4.0,ESE,3.5,-,0.00,Snow,Light Snow,110,2013-12-08 19:56:00
2:56 PM,15.1,7.0,70,30.08,9.0,North,3.5,-,0.00,,Overcast,350,2013-12-08 20:56:00
3:56 PM,14.0,6.1,71,30.09,10.0,WNW,5.8,-,0.00,,Overcast,290,2013-12-08 21:56:00
4:56 PM,14.0,7.0,74,30.11,10.0,WNW,5.8,-,N/A,,Overcast,290,2013-12-08 22:56:00
5:56 PM,12.9,6.1,74,30.11,10.0,NW,6.9,-,N/A,,Overcast,310,2013-12-08 23:56:00
6:56 PM,9.0,5.0,84,30.15,10.0,WNW,5.8,-,N/A,,Clear,290,2013-12-09 00:56:00
7:56 PM,8.1,3.9,83,30.18,10.0,West,5.8,-,N/A,,Clear,280,2013-12-09 01:56:00
8:56 PM,5.0,1.0,84,30.18,10.0,WNW,6.9,-,N/A,,Clear,300,2013-12-09 02:56:00
9:56 PM,5.0,-0.0,80,30.20,10.0,West,9.2,-,N/A,,Clear,260,2013-12-09 03:56:00
10:56 PM,3.0,-0.9,84,30.23,10.0,West,9.2,-,N/A,,Partly Cloudy,280,2013-12-09 04:56:00
11:07 PM,3.9,-0.0,84,30.13,10.0,WNW,13.8,-,N/A,,Mostly Cloudy,290,2013-12-09 05:07:00
11:56 PM,5.0,-2.9,70,30.24,10.0,WNW,16.1,21.9,N/A,,Mostly Cloudy,300,2013-12-09 05:56:00